Wind_Speed
19 20 20 21 21 20 19 18 19 18 17 17 18 18 18 17 17 17 17 17 16 15 15 15 14 14 13 13 13 13 13 13 14 14 16 16 17 19 20 20 20 19 19
20 20 20 20 20 19 19 18 17 16 16 16 17 17 18 18 17 17 17 17 16 16 16 16 16 16 15 15 14 14 14 15 15 16 16 16 17 17 18 18 17 15 14
20 19 19 19 18 18 17 16 16 15 15 15 15 16 16 17 17 17 16 16 15 16 17 17 17 17 17 17 17 16 16 16 17 17 17 16 17 17 17 17 16 14 13
20 19 18 17 16 16 15 15 15 15 15 14 14 14 15 16 17 17 16 16 15 16 16 17 18 19 19 20 19 18 18 18 18 18 18 18 18 18 18 17 16 15 14
21 19 17 15 14 14 14 14 14 15 14 14 13 13 14 15 17 18 17 17 16 17 18 19 19 20 21 21 21 20 19 19 19 20 20 20 20 21 21 20 19 19 18
21 18 16 14 13 13 13 13 14 14 14 14 13 13 13 15 17 18 19 19 19 20 21 21 20 20 21 21 20 20 20 20 20 22 23 24 24 24 25 24 24 23 23
20 17 16 14 13 13 13 13 13 14 14 14 14 14 14 15 16 18 19 20 21 22 23 22 22 21 20 20 21 21 22 22 23 24 26 28 29 29 29 29 28 28 29
20 17 15 13 13 13 14 13 14 14 14 15 15 15 15 15 16 17 18 20 21 21 22 22 21 21 21 22 23 24 25 26 27 28 29 30 32 33 34 34 34 33 34
19 17 16 14 14 14 14 14 15 15 15 15 16 17 17 17 17 18 18 19 20 20 21 21 22 23 24 25 26 28 29 31 32 33 34 35 36 36 37 38 38 38 38
20 18 17 16 15 15 15 15 15 15 15 16 17 17 18 19 20 21 21 22 22 23 23 24 25 26 27 28 30 32 34 36 37 38 38 39 39 40 40 40 41 42 42
21 19 18 18 17 17 16 16 15 15 16 17 18 18 19 21 22 23 24 24 25 26 27 27 28 29 31 32 33 35 37 39 39 40 40 41 41 41 41 42 42 43 44
21 20 20 19 18 17 17 16 15 15 16 17 18 20 21 22 23 24 25 26 27 28 29 30 31 32 34 35 37 38 39 40 41 41 41 41 41 40 40 40 41 42 43
22 21 21 20 19 18 17 17 16 16 18 19 20 21 21 22 23 24 24 26 27 28 30 31 33 34 36 37 39 40 40 40 40 39 38 38 38 38 38 39 39 40 41
23 22 22 21 20 19 19 18 18 19 20 22 22 23 23 23 23 24 24 25 26 28 30 31 33 35 37 38 39 39 39 38 37 36 35 36 36 37 38 39 40 41 42
24 23 22 22 21 21 21 21 21 22 23 25 26 26 26 26 25 25 25 26 27 29 31 33 34 36 37 37 38 37 37 36 36 36 36 36 37 38 40 41 42 43 44
24 23 22 22 23 23 23 23 23 25 26 27 28 29 29 29 28 28 28 28 30 31 33 34 35 36 37 37 37 37 36 36 36 37 38 38 39 39 40 42 43 45 46
24 23 22 23 24 25 25 25 26 27 28 30 31 31 31 31 31 31 31 32 33 34 35 36 37 37 37 36 36 36 36 36 37 38 39 40 40 41 42 43 45 47 50
24 23 23 24 25 26 26 27 28 29 30 31 32 32 32 32 32 33 34 35 36 37 37 37 37 37 37 36 36 36 36 37 38 40 41 42 43 45 46 48 50 52 54
25 24 24 25 26 26 27 29 30 31 32 33 33 32 32 32 33 35 36 37 37 38 38 37 37 37 37 37 37 37 38 39 41 43 44 46 48 50 53 55 57 59 60
26 25 25 25 26 27 29 30 32 33 34 34 33 32 32 33 35 36 38 38 38 38 38 38 38 39 39 40 40 40 42 43 45 47 49 52 54 57 59 61 64 65 67
27 26 25 26 27 29 30 32 34 35 35 34 33 33 34 36 37 39 40 40 40 40 40 40 40 41 43 44 45 46 47 49 51 54 56 59 61 63 66 68 70 71 72
27 26 26 27 28 30 32 34 35 35 34 34 35 36 37 38 40 41 41 41 41 42 43 44 45 46 47 50 52 53 53 54 56 59 62 65 67 69 71 72 74 75 77
27 27 28 29 30 32 33 34 34 34 34 35 36 37 39 40 41 42 42 42 43 44 46 47 49 50 52 54 57 61 63 64 64 65 67 69 71 73 75 76 78 78 79
27 28 29 30 31 33 33 34 34 34 36 37 38 40 41 42 42 42 42 43 45 46 48 50 52 54 57 59 62 66 70 73 75 74 73 74 76 78 79 80 81 82 83
27 28 29 30 32 33 33 33 34 36 37 39 40 41 42 42 42 42 43 44 46 48 50 52 55 59 62 66 69 71 73 76 78 80 80 81 82 83 83 84 85 87 88
27 28 29 31 32 33 34 35 36 38 39 40 41 42 42 41 42 43 44 46 48 50 53 56 60 63 67 70 73 76 78 80 82 84 85 85 86 86 88 89 91 93 95
Wind_Direction
270 274 278 282 285 287 287 288 288 285 278 272 272 270 267 266 266 265 264 261 262 263 266 265 265 268 273 281 288 293 295 298 300 303 309 317 323 326 323 319 312 302 295
270 274 278 283 288 290 290 291 289 284 279 274 272 271 268 266 266 267 268 266 265 266 268 268 270 274 277 280 284 287 289 291 293 297 305 314 322 327 330 328 322 314 304
268 272 278 284 288 291 292 292 288 283 280 278 277 275 270 267 267 269 270 270 271 271 272 273 276 278 280 280 281 283 286 288 289 294 300 308 315 321 327 329 327 321 313
263 269 276 281 285 290 291 290 286 283 282 283 285 281 273 267 265 267 270 272 274 275 276 278 279 281 281 282 282 283 285 286 287 290 294 299 306 310 315 318 319 318 312
260 265 270 272 279 284 287 288 287 284 284 287 289 286 277 270 267 267 269 271 274 277 279 280 281 282 283 283 283 284 285 285 285 287 289 292 296 298 301 302 303 304 303
258 261 263 264 273 278 282 286 288 286 285 286 288 287 282 276 271 269 269 271 274 277 279 282 284 285 284 283 283 285 286 287 287 287 287 288 289 290 291 292 292 292 291
256 257 255 259 267 273 278 282 286 286 286 285 285 285 284 280 276 273 273 273 274 276 279 282 284 283 283 283 284 286 288 289 288 288 287 286 285 285 285 286 286 286 286
254 251 247 254 263 269 274 278 281 284 285 285 284 284 284 283 282 280 279 278 277 278 279 280 280 280 280 281 282 284 286 288 288 287 285 284 283 282 282 282 282 282 282
251 244 241 248 256 264 271 275 278 282 285 287 286 284 283 282 282 282 282 281 280 279 279 279 278 278 279 280 281 282 284 287 288 288 286 284 282 281 280 280 281 281 282
246 241 237 245 252 260 267 273 278 283 287 288 288 287 285 283 282 281 281 281 281 280 280 280 280 280 280 282 283 285 287 289 290 290 289 288 286 283 281 280 280 281 281
242 238 236 239 249 258 266 273 280 285 288 289 289 289 287 286 284 283 282 281 281 281 281 281 282 283 284 286 287 289 290 290 291 291 290 289 288 286 283 281 281 281 281
239 236 237 240 246 255 263 272 280 286 289 290 290 290 289 289 287 284 282 281 281 281 282 282 283 285 286 288 289 290 291 291 291 291 290 289 287 286 285 284 283 283 283
236 236 236 243 249 254 262 270 279 286 290 292 292 292 292 291 290 288 286 285 284 284 285 285 286 287 287 289 290 290 291 292 292 291 290 289 289 289 288 287 287 286 286
235 234 239 244 250 256 263 271 279 285 289 293 293 293 294 293 292 291 289 289 288 289 289 290 291 291 291 291 292 292 293 293 293 292 291 291 290 290 290 290 289 289 288
239 237 240 247 252 258 265 272 278 285 289 292 294 293 293 293 293 292 292 291 291 290 291 292 293 294 293 293 293 293 293 293 293 293 292 292 291 291 291 291 291 290 289
241 242 242 248 254 260 268 274 279 284 288 291 292 292 292 292 292 292 292 292 293 293 294 295 296 295 294 294 294 294 294 294 294 294 293 292 291 291 291 290 290 290 289
245 246 247 251 256 263 269 276 281 285 288 290 292 291 291 291 291 291 292 293 294 295 296 296 296 296 295 295 295 295 295 295 294 293 293 292 291 291 291 290 289 289 289
248 249 251 254 259 265 271 278 284 287 290 292 292 292 291 291 291 291 292 294 295 296 296 297 297 296 295 295 294 294 294 293 293 292 292 292 292 292 291 291 291 290 289
250 252 254 257 261 266 273 280 286 289 291 293 292 292 292 292 292 293 294 295 295 296 296 296 296 295 295 294 294 294 293 293 292 292 293 294 293 293 293 293 292 291 289
251 253 255 258 263 269 276 282 287 289 291 292 292 292 293 294 294 295 295 296 297 297 297 297 297 297 296 295 295 295 294 294 294 294 294 294 294 294 294 294 293 292 290
252 253 256 260 266 272 278 284 287 289 290 291 291 292 294 295 296 297 298 299 300 300 300 300 299 299 299 298 298 297 296 296 296 296 295 295 295 294 294 293 293 291 290
252 254 258 263 269 275 281 285 287 288 288 289 291 292 295 296 298 299 300 301 302 302 302 303 302 302 301 300 299 297 295 294 294 294 294 294 294 293 293 292 292 290 289
252 255 260 266 272 278 282 285 286 286 287 289 290 293 295 297 298 299 300 302 303 303 303 303 303 302 301 300 299 298 297 295 293 293 293 293 293 293 292 292 291 290 289
253 257 263 269 274 279 282 284 285 286 287 289 291 293 295 297 298 300 301 302 303 303 303 302 301 300 299 299 298 298 298 298 297 296 295 295 295 294 294 294 293 292 291
255 260 265 271 276 280 282 283 284 286 288 290 292 294 295 297 299 300 301 302 302 301 301 300 299 299 299 299 299 299 298 298 298 297 297 296 296 296 296 296 295 294 293
258 263 267 272 276 279 281 282 284 286 289 291 293 295 297 299 300 300 300 300 300 300 299 299 299 300 300 300 300 300 300 299 299 298 298 297 297 298 298 298 297 296 295
Height
5852 5852 5852 5852 5852 5852 5852 5852 5851 5851 5851 5851 5851 5851 5852 5853 5854 5854 5854 5855 5855 5855 5855 5855 5855 5855 5855 5854 5854 5854 5853 5853 5852 5851 5851 5849 5848 5846 5844 5843 5841 5840 5839
5849 5849 5850 5850 5850 5849 5849 5849 5849 5848 5848 5848 5849 5849 5849 5850 5851 5852 5852 5852 5853 5853 5853 5853 5853 5852 5852 5852 5851 5851 5850 5850 5849 5848 5847 5846 5845 5843 5842 5840 5838 5837 5836
5846 5846 5847 5847 5847 5847 5847 5847 5847 5846 5846 5846 5846 5846 5847 5848 5848 5849 5850 5850 5850 5850 5851 5851 5850 5850 5849 5849 5848 5847 5847 5846 5846 5845 5844 5843 5842 5841 5839 5838 5836 5835 5834
5843 5844 5844 5845 5845 5845 5845 5845 5845 5844 5844 5844 5844 5844 5844 5845 5846 5846 5847 5847 5847 5848 5848 5848 5847 5847 5846 5846 5845 5844 5843 5842 5842 5841 5841 5840 5839 5837 5836 5835 5834 5833 5832
5840 5841 5841 5842 5842 5843 5843 5843 5842 5842 5842 5842 5842 5842 5842 5842 5843 5844 5844 5844 5844 5845 5845 5844 5844 5843 5842 5842 5841 5840 5839 5838 5838 5837 5836 5836 5835 5834 5833 5832 5831 5830 5829
5837 5838 5839 5839 5840 5840 5840 5840 5840 5840 5840 5839 5839 5839 5839 5839 5840 5841 5841 5841 5841 5841 5841 5840 5840 5839 5838 5838 5837 5836 5835 5834 5834 5833 5832 5831 5831 5830 5828 5828 5827 5826 5825
5834 5835 5836 5837 5837 5838 5838 5838 5837 5837 5837 5837 5837 5837 5836 5837 5837 5837 5837 5837 5838 5838 5837 5837 5836 5835 5834 5833 5832 5832 5831 5830 5829 5828 5827 5826 5825 5824 5823 5822 5821 5821 5820
5831 5832 5833 5834 5835 5835 5835 5835 5834 5834 5834 5834 5834 5834 5833 5834 5834 5834 5833 5833 5833 5833 5833 5832 5831 5830 5829 5828 5827 5826 5825 5824 5823 5822 5821 5820 5819 5818 5817 5816 5815 5814 5813
5827 5829 5830 5831 5832 5832 5832 5832 5832 5831 5831 5831 5831 5830 5830 5830 5830 5829 5829 5829 5828 5828 5827 5827 5826 5825 5823 5822 5821 5820 5819 5818 5817 5815 5814 5813 5812 5810 5809 5808 5807 5806 5805
5823 5825 5826 5827 5828 5828 5829 5829 5829 5829 5828 5828 5828 5827 5826 5826 5825 5824 5824 5823 5823 5823 5822 5821 5820 5819 5818 5817 5816 5814 5813 5812 5810 5808 5807 5805 5804 5802 5801 5800 5799 5798 5797
5819 5821 5822 5824 5824 5825 5825 5826 5826 5825 5825 5825 5824 5823 5822 5821 5820 5819 5819 5818 5818 5817 5816 5815 5814 5813 5812 5811 5810 5808 5807 5805 5803 5801 5799 5797 5795 5793 5792 5791 5790 5789 5788
5816 5817 5818 5819 5820 5821 5822 5823 5822 5822 5822 5821 5820 5819 5817 5816 5815 5815 5814 5813 5812 5811 5811 5810 5809 5807 5806 5804 5803 5801 5799 5797 5795 5793 5790 5788 5785 5784 5782 5781 5780 5779 5778
5812 5813 5814 5816 5817 5818 5819 5819 5819 5819 5818 5817 5816 5815 5813 5812 5811 5810 5808 5807 5807 5806 5805 5804 5802 5801 5799 5797 5795 5793 5791 5789 5787 5784 5782 5779 5777 5775 5773 5772 5770 5769 5768
5808 5810 5811 5812 5813 5814 5815 5815 5815 5815 5814 5813 5811 5810 5809 5808 5806 5805 5804 5803 5802 5800 5799 5797 5795 5793 5791 5789 5787 5785 5783 5780 5778 5776 5774 5771 5769 5766 5764 5763 5761 5759 5758
5804 5806 5807 5808 5809 5810 5811 5811 5811 5811 5810 5809 5807 5805 5804 5803 5801 5800 5799 5797 5796 5794 5793 5791 5789 5786 5784 5781 5779 5777 5774 5772 5770 5768 5766 5763 5761 5759 5756 5754 5751 5750 5748
5800 5802 5804 5805 5805 5806 5806 5807 5807 5806 5805 5804 5803 5801 5799 5798 5796 5795 5793 5791 5790 5788 5786 5784 5781 5779 5776 5773 5771 5768 5766 5763 5761 5759 5756 5754 5752 5750 5747 5744 5741 5738 5736
5796 5798 5800 5801 5801 5802 5802 5803 5802 5801 5801 5799 5797 5795 5794 5792 5790 5788 5787 5785 5783 5780 5778 5776 5773 5770 5768 5765 5763 5760 5757 5755 5752 5749 5747 5744 5742 5739 5736 5734 5731 5727 5724
5792 5794 5795 5796 5797 5797 5798 5798 5797 5796 5795 5794 5792 5790 5788 5786 5784 5782 5780 5778 5775 5773 5770 5767 5765 5762 5759 5757 5754 5751 5749 5746 5743 5739 5736 5733 5730 5727 5724 5721 5718 5715 5711
5788 5790 5791 5792 5792 5793 5793 5793 5792 5791 5790 5788 5786 5784 5782 5780 5777 5775 5773 5770 5767 5765 5762 5759 5756 5753 5750 5748 5745 5743 5740 5736 5733 5729 5726 5722 5718 5714 5711 5707 5703 5700 5696
5784 5786 5787 5787 5788 5788 5788 5788 5787 5785 5784 5782 5780 5777 5775 5773 5771 5768 5765 5762 5759 5756 5753 5750 5747 5743 5740 5737 5735 5732 5729 5726 5721 5718 5714 5710 5706 5701 5696 5692 5687 5683 5678
5780 5781 5782 5783 5783 5784 5783 5782 5781 5779 5778 5776 5773 5771 5769 5766 5763 5761 5758 5754 5751 5747 5744 5741 5737 5734 5729 5726 5723 5721 5718 5714 5709 5705 5700 5696 5691 5686 5680 5675 5669 5664 5658
5775 5776 5777 5778 5778 5778 5777 5776 5775 5773 5771 5769 5767 5764 5762 5759 5756 5753 5749 5746 5742 5738 5734 5730 5727 5723 5719 5714 5710 5707 5705 5704 5698 5693 5687 5681 5675 5670 5664 5657 5651 5645 5638
5770 5771 5772 5773 5772 5772 5771 5770 5768 5766 5765 5763 5760 5757 5755 5752 5748 5745 5741 5737 5733 5729 5724 5720 5716 5711 5707 5702 5696 5690 5685 5682 5681 5679 5672 5665 5658 5652 5645 5638 5631 5624 5617
5765 5766 5766 5767 5766 5766 5764 5763 5761 5760 5758 5756 5753 5750 5747 5744 5740 5736 5733 5728 5724 5719 5715 5710 5705 5700 5695 5690 5684 5676 5668 5661 5655 5653 5651 5644 5637 5630 5623 5615 5608 5599 5591
5759 5760 5760 5760 5760 5759 5758 5756 5754 5753 5750 5748 5745 5742 5739 5736 5732 5728 5724 5719 5715 5710 5705 5700 5694 5688 5681 5675 5668 5661 5654 5646 5636 5629 5626 5621 5614 5606 5598 5590 5582 5572 5563
5754 5754 5754 5754 5753 5752 5751 5749 5747 5745 5743 5740 5737 5734 5731 5727 5723 5719 5715 5710 5705 5700 5694 5688 5682 5675 5668 5660 5651 5643 5635 5627 5618 5609 5603 5598 5591 5584 5574 5564 5554 5543 5532